Zurück zum Katalog

STARLINK-35420

AktivKommunikationVLEO
NORAD 66260·PAYLOAD·🇺🇸 United States

Gestartet Oct 29, 2025 von Cape Canaveral Space Force Station

Loading…

Nächste Überflüge (nächste 24 Stunden)

TLE

AktuellSource: CelesTrak SupGP

Epoche: Sep 14, 2026, 20:46 UTC

1 66260C 25245AC  26257.86576389 -.00049376  00000+0 -15877-2 0  2579
2 66260  53.1582 123.7550 0001368  83.9036 159.2145 15.31728773    18

Verfolge STARLINK-35420 in Echtzeit mit AllMySat

Download on the App Store